| time (UTC) | temp F | wind direction | speed MPH | gust MPH | rain 1hr in | rain 24hr in | rain mn in | humidity % | barometer mb |
| 20260502223047 | 67 | 105 | 3.0 | 7.0 | 0.00 | 0.00 | 0.00 | 36 | 1015.4 |
| 20260502221546 | 67 | 93 | 2.0 | 7.0 | 0.00 | 0.00 | 0.00 | 35 | 1015.7 |
| 20260502220042 | 67 | 47 | 0.0 | 7.0 | 0.00 | 0.00 | 0.00 | 36 | 1015.7 |
| 20260502214549 | 66 | 340 | 2.0 | 10.0 | 0.00 | 0.00 | 0.00 | 36 | 1015.9 |
| 20260502213048 | 66 | 107 | 5.0 | 13.0 | 0.00 | 0.00 | 0.00 | 38 | 1016.2 |
| 20260502211546 | 66 | 45 | 5.0 | 13.0 | 0.00 | 0.00 | 0.00 | 37 | 1016.3 |
| 20260502210047 | 66 | 87 | 4.0 | 12.0 | 0.00 | 0.00 | 0.00 | 36 | 1016.5 |
| 20260502204545 | 66 | 111 | 3.0 | 14.0 | 0.00 | 0.00 | 0.00 | 35 | 1016.5 |
| 20260502203042 | 66 | 106 | 3.0 | 8.0 | 0.00 | 0.00 | 0.00 | 37 | 1016.8 |
| 20260502201541 | 66 | 97 | 2.0 | 7.0 | 0.00 | 0.00 | 0.00 | 36 | 1017.1 |
| 20260502200050 | 66 | 115 | 2.0 | 8.0 | 0.00 | 0.00 | 0.00 | 34 | 1017.2 |
| 20260502194547 | 66 | 106 | 2.0 | 8.0 | 0.00 | 0.00 | 0.00 | 33 | 1017.5 |
| 20260502193044 | 65 | 156 | 2.0 | 6.0 | 0.00 | 0.00 | 0.00 | 35 | 1017.6 |
| 20260502191546 | 65 | 84 | 2.0 | 6.0 | 0.00 | 0.00 | 0.00 | 36 | 1017.6 |
| 20260502190045 | 64 | 141 | 2.0 | 7.0 | 0.00 | 0.00 | 0.00 | 37 | 1017.7 |
| 20260502184600 | 64 | 142 | 2.0 | 6.0 | 0.00 | 0.00 | 0.00 | 41 | 1018.0 |
| 20260502183056 | 65 | 126 | 3.0 | 8.0 | 0.00 | 0.00 | 0.00 | 41 | 1017.9 |
| 20260502181553 | 64 | 119 | 1.0 | 5.0 | 0.00 | 0.00 | 0.00 | 44 | 1018.0 |
| 20260502163053 | 61 | 123 | 1.0 | 4.0 | 0.00 | 0.00 | 0.00 | 51 | 1018.2 |
| 20260502161542 | 59 | 96 | 3.0 | 5.0 | 0.00 | 0.00 | 0.00 | 58 | 1018.2 |
| 20260502151547 | 58 | 132 | 0.0 | 2.0 | 0.00 | 0.00 | 0.00 | 59 | 1018.2 |
| 20260502123059 | 50 | 101 | 0.0 | 3.0 | 0.00 | 0.00 | 0.00 | 70 | 1017.6 |
| 20260502121547 | 50 | 109 | 0.0 | 5.0 | 0.00 | 0.00 | 0.00 | 70 | 1017.7 |
| 20260502114550 | 50 | 0 | 0.0 | 1.0 | 0.00 | 0.00 | 0.00 | 65 | 1017.3 |
| 20260502113051 | 50 | 0 | 0.0 | 1.0 | 0.00 | 0.00 | 0.00 | 62 | 1017.2 |
| 20260502111551 | 49 | 0 | 0.0 | 1.0 | 0.00 | 0.00 | 0.00 | 63 | 1017.0 |
| 20260502110056 | 49 | 0 | 0.0 | 1.0 | 0.00 | 0.00 | 0.00 | 62 | 1017.2 |
| 20260502104550 | 50 | 0 | 0.0 | 1.0 | 0.00 | 0.00 | 0.00 | 61 | 1017.2 |
| 20260502103045 | 50 | 0 | 0.0 | 0.0 | 0.00 | 0.00 | 0.00 | 61 | 1016.8 |
| 20260502101611 | 50 | 0 | 0.0 | 0.0 | 0.00 | 0.00 | 0.00 | 60 | 1016.8 |
| 20260502070053 | 55 | 0 | 0.0 | 3.0 | 0.00 | 0.00 | 0.00 | 50 | 1015.5 |
| 20260502064551 | 56 | 225 | 1.0 | 4.0 | 0.00 | 0.00 | 0.00 | 49 | 1015.3 |
| 20260502063048 | 56 | 224 | 0.0 | 4.0 | 0.00 | 0.00 | 0.00 | 48 | 1015.1 |
| 20260502061542 | 56 | 217 | 0.0 | 3.0 | 0.00 | 0.00 | 0.00 | 48 | 1014.9 |
| 20260502060050 | 57 | 217 | 1.0 | 7.0 | 0.00 | 0.00 | 0.00 | 47 | 1014.6 |
| 20260502054541 | 59 | 171 | 3.0 | 8.0 | 0.00 | 0.00 | 0.00 | 45 | 1014.4 |
| 20260502053106 | 59 | 212 | 1.0 | 7.0 | 0.00 | 0.00 | 0.00 | 43 | 1014.2 |
| 20260502051548 | 59 | 196 | 1.0 | 7.0 | 0.00 | 0.00 | 0.00 | 41 | 1013.7 |
| 20260502050046 | 58 | 155 | 1.0 | 7.0 | 0.00 | 0.00 | 0.00 | 43 | 1013.7 |
| 20260502044543 | 56 | 0 | 0.0 | 0.0 | 0.00 | 0.00 | 0.00 | 45 | 1013.1 |
| 20260502043043 | 57 | 0 | 0.0 | 1.0 | 0.00 | 0.00 | 0.00 | 43 | 1012.7 |
| 20260502041543 | 59 | 236 | 1.0 | 3.0 | 0.00 | 0.00 | 0.00 | 41 | 1012.7 |
| 20260502040044 | 61 | 140 | 0.0 | 1.0 | 0.00 | 0.00 | 0.00 | 38 | 1012.3 |
| 20260502034547 | 62 | 0 | 0.0 | 1.0 | 0.00 | 0.00 | 0.00 | 36 | 1012.2 |
| 20260502033056 | 62 | 140 | 0.0 | 1.0 | 0.00 | 0.00 | 0.00 | 34 | 1012.1 |
| 20260502031549 | 63 | 0 | 0.0 | 0.0 | 0.00 | 0.00 | 0.00 | 32 | 1012.0 |
| 20260502030055 | 65 | 0 | 0.0 | 0.0 | 0.00 | 0.00 | 0.00 | 30 | 1012.0 |
| 20260502024545 | 66 | 0 | 0.0 | 0.0 | 0.00 | 0.00 | 0.00 | 30 | 1011.9 |
| 20260502023103 | 68 | 0 | 0.0 | 0.0 | 0.00 | 0.00 | 0.00 | 27 | 1011.9 |
| 20260502021545 | 70 | 0 | 0.0 | 0.0 | 0.00 | 0.00 | 0.00 | 25 | 1011.9 |
| 20260502020042 | 72 | 0 | 0.0 | 1.0 | 0.00 | 0.00 | 0.00 | 24 | 1011.8 |
| 20260502014549 | 73 | 0 | 0.0 | 1.0 | 0.00 | 0.00 | 0.00 | 24 | 1011.8 |
| 20260502013046 | 72 | 0 | 0.0 | 2.0 | 0.00 | 0.00 | 0.00 | 24 | 1011.8 |
| 20260502011555 | 73 | 129 | 1.0 | 3.0 | 0.00 | 0.00 | 0.00 | 23 | 1011.9 |
| 20260502010047 | 72 | 126 | 1.0 | 5.0 | 0.00 | 0.00 | 0.00 | 24 | 1012.1 |
| 20260502004557 | 73 | 98 | 1.0 | 6.0 | 0.00 | 0.00 | 0.00 | 24 | 1012.3 |
| 20260502003042 | 73 | 100 | 2.0 | 5.0 | 0.00 | 0.00 | 0.00 | 24 | 1012.3 |
| 20260502001538 | 73 | 128 | 2.0 | 5.0 | 0.00 | 0.00 | 0.00 | 23 | 1012.4 |
| 20260502000047 | 73 | 131 | 3.0 | 7.0 | 0.00 | 0.00 | 0.00 | 23 | 1012.4 |
| 20260501234546 | 73 | 118 | 2.0 | 7.0 | 0.00 | 0.00 | 0.00 | 23 | 1012.4 |
| 20260501233044 | 73 | 98 | 2.0 | 5.0 | 0.00 | 0.00 | 0.00 | 22 | 1012.5 |
| 20260501231542 | 74 | 104 | 2.0 | 8.0 | 0.00 | 0.00 | 0.00 | 22 | 1012.5 |
| 20260501230046 | 74 | 139 | 3.0 | 9.0 | 0.00 | 0.00 | 0.00 | 23 | 1012.5 |
| 20260501224544 | 74 | 94 | 3.0 | 11.0 | 0.00 | 0.00 | 0.00 | 22 | 1012.7 |